Regional Weather Roundup
Issued by NWS

Home | Current Version | Previous Version | Text Only | Print | Product List | Glossary Off
Versions: 1 2 3 4 5 6 7 8 9 10 11 12 13 14 15 16 17 18 19 20 21 22 23 24 25 26 27 28 29 30 31 32 33 34 35 36 37 38 39 40 41 42 43 44 45 46 47 48 49 50

000
ASUS43 KBIS 281120
RWRND

NORTH DAKOTA REGIONAL WEATHER ROUNDUP
NATIONAL WEATHER SERVICE BISMARCK ND
600 AM CDT MON JUL 28 2014

NOTE: "FAIR" INDICATES FEW OR NO CLOUDS BELOW 12,000 FEET WITH NO
SIGNIFICANT WEATHER AND/OR OBSTRUCTIONS TO VISIBILITY.


NDZ001>003-009>011-017-281200-
NORTHWEST NORTH DAKOTA

CITY           SKY/WX    TMP DP  RH WIND       PRES   REMARKS
WILLISTON      CLEAR     51  49  92 CALM      30.32R
MINOT          MOCLDY    52  49  89 SW6       30.31S
MINOT AFB      PTCLDY    51  50  99 CALM      30.31S
$$

NDZ018>021-031>035-040>046-281200-
SOUTHWEST NORTH DAKOTA

CITY           SKY/WX    TMP DP  RH WIND       PRES   REMARKS
BISMARCK       CLEAR     46  46 100 CALM      30.35R
DICKINSON      CLEAR     49  46  90 S7        30.34R
GARRISON         N/A     49  47  93 NW5       30.33R
HETTINGER ARPT CLEAR     45  43  93 CALM      30.36S
$$

NDZ004>008-012>016-024-026-027-054-281200-
NORTHEAST NORTH DAKOTA

CITY           SKY/WX    TMP DP  RH WIND       PRES   REMARKS
GRAND FORKS    CLOUDY    60  55  83 NW5       30.25
GRND FRKS AFB  CLOUDY    59  56  89 NW6       30.27R
DEVILS LAKE    CLEAR     52  46  82 W5        30.29R
$$

NDZ022-023-025-028>030-036>039-047>053-281200-
SOUTHEAST NORTH DAKOTA

CITY           SKY/WX    TMP DP  RH WIND       PRES   REMARKS
FARGO          CLOUDY    60  55  83 N6        30.25R
JAMESTOWN      CLOUDY    56  52  86 NW7       30.29S
$$




USA.gov is the U.S. government's official web portal to all federal, state and local government web resources and services.